Flag for Guinea Weather past 2 weeks in Boké, Guinea

Now
79 °F

Passing clouds.


Feels Like: 81 °F
Forecast: 69 / 95 °F
Wind: 7 mph from North

Location: Conakry / Gbessia

Current Time: Dec 18, 2014 at 4:07:44 AM

Latest Report: Dec 18, 2014 at 2:00 AM


Visibility: 2 mi

Pressure: 29.89 "Hg

Humidity: 70%

Dew point: 68 °F

Location of BokéLocation

Historic Weather in Boké — Graph

°F

Boké temperature yesterday

Maximum temperature yesterday: 84 °F (at 5:00 PM)
Minimum temperature yesterday: 73 °F (at 7:00 AM)
Average temperature yesterday: 79 °F

Past Weeks' High & Low Weather Summary

 TemperatureHumidityPressure
High93 °F (Dec 10, 6:00 PM)100% (Dec 4, 7:00 AM)29.95 "Hg (Dec 4, 7:00 AM)
Low72 °F (Dec 12, 7:00 AM)36% (Dec 11, 3:00 PM)29.77 "Hg (Dec 3, 3:00 PM)
Average81 °F79%29.87 "Hg
* Reported Dec 3 2:00 AM — Dec 18 2:00 AM, Boké, Weather by CustomWeather, © 2014

Note: Actual official high and low records may vary slightly from our data, if they occured in-between our weather recording intervals... More about our weather records

Advertising

Boké weather history for previous 24 hours

 ConditionsComfort  
Time TempWeatherWind HumidityBarometerVisibility
2:00 AM
Dec 18
79 °FPassing clouds.7 mph70%29.89 "Hg2 mi
12:00 AM79 °FPassing clouds.5 mph70%29.92 "Hg2 mi
11:00 PM
Dec 17
79 °FFog.5 mph74%29.92 "Hg2 mi
10:00 PM79 °FPassing clouds.2 mph74%29.92 "Hg2 mi
9:00 PM81 °FPassing clouds.5 mph70%29.89 "Hg2 mi
8:00 PM81 °FPassing clouds.5 mph70%29.89 "Hg2 mi
7:00 PM81 °FPassing clouds.5 mph74%29.86 "Hg2 mi
6:00 PM84 °FPartly sunny.5 mph66%29.83 "Hg2 mi
5:00 PM84 °FPartly sunny.7 mph66%29.83 "Hg2 mi
11:00 AM81 °FPartly sunny.5 mph66%29.95 "Hg2 mi
10:00 AM79 °FScattered clouds.5 mph65%29.95 "Hg2 mi
9:00 AM73 °FFog.5 mph83%29.95 "Hg2 mi
8:00 AM73 °FFog.5 mph89%29.89 "Hg2 mi
7:00 AM73 °FFog.5 mph94%29.89 "Hg2 mi
6:00 AM79 °FFog.5 mph94%29.86 "Hg2 mi
5:00 AM79 °FFog.2 mph94%29.86 "Hg2 mi
4:00 AM81 °FFog.No wind94%29.86 "Hg2 mi
Weather by CustomWeather, © 2014

See weather overviewHow to use our weather pages